SaudiComsat-3

operational
NORAD ID: 31125 Int'l Des: 2007-012 Owner: KACST Country: SA
LEOCIRCULARRETROGRADESSO
追跡 地上

SaudiComsat-3について

説明を読み込み中...

リアルタイム位置

3D地球を読み込み中...

次回通過

高度履歴

Altitude vs Time

uPlot chart will show altitude changes over time

軌道要素

1 31125U 07012J 26074.15357284 .00001323 00000-0 22417-3 0 9994
2 31125 98.3057 47.7411 0039067 351.4147 8.6385 14.70541986 11007
Epoch: Mar 15, 2026 • Age: 9 hours

現在のステータス

高度 689.3 km
速度 7.50 km/s
衛星直下点 2.15°N, 134.55°W
打ち上げ日 Apr 17, 2007
運用期間 18.9 years
タイプ other

技術仕様

分類 Payload
質量 12.00 kg
乾燥質量 12.00 kg
総質量 12.00 kg
長さ 0.20 m
直径 0.20 m
スパン 0.20 m
形状 Box
製造者 KACST
バスタイプ Saudisat
フェーズステータス In Orbit
所有者/国 KACST/SA

大規模コンステレーション

Loading constellations...